DW7628 Caltanissetta IT current weather conditions

sailwx.info

Wind from 141 at 1 knots gusting 5

Air temperature 8.9° C
Dewpoint 5.8° C

Last reported at 2020-Jan-20 07:58 UTC.
Time now 2020-Jan-20 09:00 UTC

Location: N 37°30' E 014°03'.
View on Google Maps.

See reports from other nearby stations

  
Tides and Currents Weather Stations Pressure Air Temp Water Temp Dewpoint Dewpoint Depression Visibility Wind Speed Wind Dir Waves Ship Positions
date/time (UTC)wind fromknots sea level pressurealtimeterstation pressurevisibilityair tempwater tempwave heightnotes
2020-Jan-20 07:58 141 1 gusting 5 8.9
2020-Jan-20 07:48 095 1 gusting 6 8.9
2020-Jan-20 07:38 069 0 gusting 4 8.9
2020-Jan-20 07:28 101 0 gusting 6 8.3
2020-Jan-20 07:18 041 1 gusting 4 8.3
2020-Jan-20 07:08 120 1 gusting 5 7.8
2020-Jan-20 06:58 075 0 gusting 2 7.8
2020-Jan-20 06:48 075 0 gusting 4 7.8
2020-Jan-20 06:38 119 1 gusting 7 7.2
2020-Jan-20 06:28 123 1 gusting 7 7.2
2020-Jan-20 06:18 022 0 gusting 4 7.2
2020-Jan-20 06:08 098 0 gusting 2 7.8
2020-Jan-20 05:58 072 7.8
2020-Jan-20 05:48 121 0 gusting 2 7.8
2020-Jan-20 05:38 169 0 gusting 2 7.8
2020-Jan-20 05:28 099 7.2
2020-Jan-20 05:18 095 7.2
2020-Jan-20 05:08 078 0 gusting 1 7.2
2020-Jan-20 04:58 089 0 gusting 1 7.2
2020-Jan-20 04:48 101 0 gusting 2 7.2
2020-Jan-20 04:38 061 0 gusting 2 7.2
2020-Jan-20 04:28 101 0 gusting 2 7.2
2020-Jan-20 04:18 136 7.2
2020-Jan-20 04:08 107 7.2
2020-Jan-20 03:58 117 7.2
2020-Jan-20 03:48 160 0 gusting 2 7.2
2020-Jan-20 03:38 145 0 gusting 2 7.2
2020-Jan-20 03:28 058 6.7
2020-Jan-20 03:18 115 0 gusting 2 6.7
2020-Jan-20 03:08 102 6.7
2020-Jan-20 02:58 063 0 gusting 6 6.7
2020-Jan-20 02:48 075 1 gusting 5 6.7
2020-Jan-20 02:38 134 0 gusting 5 6.7
2020-Jan-20 02:28 106 2 gusting 6 7.2
2020-Jan-20 02:18 087 1 gusting 8 7.2
2020-Jan-20 02:08 152 2 gusting 6 7.2
2020-Jan-20 01:58 120 1 gusting 6 7.2
2020-Jan-20 01:48 103 1 gusting 5 7.2
2020-Jan-20 01:38 068 1 gusting 5 7.2
2020-Jan-20 01:28 353 0 gusting 4 7.2
2020-Jan-20 01:18 108 0 gusting 4 7.2
2020-Jan-20 01:08 098 0 gusting 4 7.2
2020-Jan-20 00:58 109 0 gusting 2 7.2
2020-Jan-20 00:48 098 0 gusting 2 7.2
2020-Jan-20 00:38 092 0 gusting 2 7.2
2020-Jan-20 00:28 106 7.2
2020-Jan-20 00:18 091 0 gusting 2 7.2
2020-Jan-20 00:08 112 0 gusting 1 7.2
2020-Jan-19 23:58 148 0 gusting 2 6.7
2020-Jan-19 23:48 101 0 gusting 2 6.7
2020-Jan-19 23:38 091 6.7
2020-Jan-19 23:28 084 0 gusting 1 6.7
2020-Jan-19 23:18 096 6.7
2020-Jan-19 23:09 114 6.7
2020-Jan-19 22:58 097 7.2
2020-Jan-19 22:48 121 7.2
2020-Jan-19 22:38 084 7.2
2020-Jan-19 22:28 113 6.7
2020-Jan-19 22:18 098 6.7
2020-Jan-19 22:08 062 7.2
2020-Jan-19 21:58 094 7.2
2020-Jan-19 21:48 097 0 gusting 2 7.2
2020-Jan-19 21:38 105 0 gusting 2 7.2
2020-Jan-19 21:28 086 0 gusting 2 6.7
2020-Jan-19 21:18 086 6.7
2020-Jan-19 21:08 117 7.2
2020-Jan-19 20:58 120 7.2
2020-Jan-19 20:48 122 6.7
2020-Jan-19 20:38 120 6.7
2020-Jan-19 20:28 113 7.2
2020-Jan-19 20:18 110 0 gusting 2 7.2
2020-Jan-19 20:08 117 0 gusting 1 7.2
2020-Jan-19 19:58 113 7.2
2020-Jan-19 19:48 132 7.2
2020-Jan-19 19:38 120 7.8
2020-Jan-19 19:28 058 7.8
2020-Jan-19 19:18 105 7.8
2020-Jan-19 19:08 120 7.8
2020-Jan-19 18:58 088 7.8
2020-Jan-19 18:48 130 7.8
2020-Jan-19 18:38 116 0 gusting 1 7.8
2020-Jan-19 18:28 111 0 gusting 2 7.8
2020-Jan-19 18:18 245 7.8
2020-Jan-19 18:08 242 7.8
2020-Jan-19 17:58 221 7.8
2020-Jan-19 17:48 215 8.3
2020-Jan-19 17:38 098 8.3
2020-Jan-19 17:28 094 8.9
2020-Jan-19 17:18 094 1 gusting 2 8.9
2020-Jan-19 17:08 257 8.9
2020-Jan-19 16:58 259 8.9
2020-Jan-19 16:48 275 8.9
2020-Jan-19 16:38 286 8.9
2020-Jan-19 16:28 250 9.4
2020-Jan-19 16:18 297 9.4
2020-Jan-19 16:08 284 0 gusting 1 10.0
2020-Jan-19 15:58 246 0 gusting 2 10.0
2020-Jan-19 15:48 255 10.6
2020-Jan-19 15:38 155 11.1
2020-Jan-19 15:28 288 1 gusting 5 11.7
2020-Jan-19 15:18 278 11.7
2020-Jan-19 15:08 182 0 gusting 2 12.2
2020-Jan-19 14:58 113 1 gusting 2 12.2
2020-Jan-19 14:48 112 0 gusting 2 12.2
2020-Jan-19 14:38 231 12.8
2020-Jan-19 14:28 130 0 gusting 2 12.2
2020-Jan-19 14:18 150 12.8
2020-Jan-19 14:08 226 0 gusting 1 12.2
2020-Jan-19 13:58 238 0 gusting 2 12.2
2020-Jan-19 13:48 085 0 gusting 5 12.2
2020-Jan-19 13:38 170 1 gusting 2 12.2
2020-Jan-19 13:28 252 0 gusting 2 12.8
2020-Jan-19 13:18 201 12.2
2020-Jan-19 13:08 152 0 gusting 4 12.2
2020-Jan-19 12:58 146 0 gusting 6 12.2
2020-Jan-19 12:48 085 1 gusting 2 12.2
2020-Jan-19 12:38 188 0 gusting 2 12.2
2020-Jan-19 12:28 122 1 gusting 4 12.2
2020-Jan-19 12:18 117 0 gusting 2 12.2
2020-Jan-19 12:08 141 0 gusting 2 11.7
2020-Jan-19 11:58 146 0 gusting 2 11.7
2020-Jan-19 11:48 118 0 gusting 4 11.7
2020-Jan-19 11:38 131 11.7
2020-Jan-19 11:28 094 11.7
2020-Jan-19 11:18 117 1 gusting 4 11.1
2020-Jan-19 11:08 099 11.1
2020-Jan-19 10:58 086 11.1
2020-Jan-19 10:48 235 11.1
2020-Jan-19 10:38 260 0 gusting 2 11.1
2020-Jan-19 10:28 232 11.1
2020-Jan-19 10:18 020 10.6
2020-Jan-19 10:08 141 10.0
2020-Jan-19 09:58 091 9.4
2020-Jan-19 09:48 055 9.4
2020-Jan-19 09:38 172 8.9
2020-Jan-19 09:28 284 8.9
2020-Jan-19 09:18 082 9.4
2020-Jan-19 09:08 084 9.4
2020-Jan-19 08:58 254 0 gusting 2 8.9
2020-Jan-19 08:48 234 8.3
2020-Jan-19 08:38 051 0 gusting 1 8.3
2020-Jan-19 08:28 098 7.8
2020-Jan-19 08:18 164 7.8
2020-Jan-19 08:08 173 7.8
2020-Jan-19 07:58 218 7.8
2020-Jan-19 07:48 255 7.2
2020-Jan-19 07:38 255 6.7
2020-Jan-19 07:28 273 6.1
2020-Jan-19 07:18 229 5.6
2020-Jan-19 07:08 100 5.6
2020-Jan-19 06:58 091 5.0
2020-Jan-19 06:48 143 5.0
2020-Jan-19 06:38 023 4.4
2020-Jan-19 06:28 269 4.4
2020-Jan-19 06:18 318 4.4
2020-Jan-19 06:08 271 4.4
2020-Jan-19 05:58 351 4.4
2020-Jan-19 05:48 250 5.0
2020-Jan-19 05:38 032 5.0
2020-Jan-19 05:28 037 5.0
2020-Jan-19 05:18 024 4.4
2020-Jan-19 05:08 039 5.0
2020-Jan-19 04:58 087 5.0
2020-Jan-19 04:48 088 5.0
2020-Jan-19 04:38 086 5.0
2020-Jan-19 04:28 053 5.0
2020-Jan-19 04:18 058 5.0
2020-Jan-19 04:08 136 5.0
2020-Jan-19 03:58 252 4.4
2020-Jan-19 03:48 263 4.4
2020-Jan-19 03:38 256 4.4
2020-Jan-19 03:28 257 5.0
2020-Jan-19 03:18 271 5.0
2020-Jan-19 03:08 240 4.4
2020-Jan-19 02:58 258 4.4
2020-Jan-19 02:48 271 4.4
2020-Jan-19 02:38 242 5.0
2020-Jan-19 02:28 066 5.0
2020-Jan-19 02:18 059 5.0
2020-Jan-19 02:08 257 5.0
2020-Jan-19 01:58 284 5.0
2020-Jan-19 01:48 348 5.0
2020-Jan-19 01:38 330 5.0
2020-Jan-19 01:28 259 5.0
2020-Jan-19 01:18 268 5.0
2020-Jan-19 01:08 261 5.0
2020-Jan-19 00:58 270 5.0
2020-Jan-19 00:48 270 5.0
2020-Jan-19 00:38 270 5.0
2020-Jan-19 00:28 270 5.0
2020-Jan-19 00:18 270 5.0
2020-Jan-19 00:08 270 5.0
2020-Jan-18 23:58 270 5.0
2020-Jan-18 23:48 231 5.6
2020-Jan-18 23:38 228 5.6
2020-Jan-18 23:28 255 5.6
2020-Jan-18 23:18 071 5.6
2020-Jan-18 23:09 048 6.1
2020-Jan-18 22:58 251 6.1
2020-Jan-18 22:48 176 6.1
2020-Jan-18 22:38 268 6.1
2020-Jan-18 22:28 053 0 gusting 1 6.1
2020-Jan-18 22:18 234 6.1
2020-Jan-18 22:08 060 6.1
2020-Jan-18 21:58 162 6.7
2020-Jan-18 21:48 119 6.7
2020-Jan-18 21:38 038 6.7
2020-Jan-18 21:28 169 6.7
2020-Jan-18 21:18 087 6.7
2020-Jan-18 21:08 072 6.7
2020-Jan-18 20:58 230 6.7
2020-Jan-18 20:48 068 7.2
2020-Jan-18 20:38 078 7.2
2020-Jan-18 20:28 239 6.7
2020-Jan-18 20:18 222 7.2
2020-Jan-18 20:08 094 7.2
2020-Jan-18 19:58 206 7.2
2020-Jan-18 19:48 059 0 gusting 2 7.2
2020-Jan-18 19:38 077 7.2
2020-Jan-18 19:28 079 0 gusting 2 7.8
2020-Jan-18 19:18 083 0 gusting 2 7.8
2020-Jan-18 19:08 084 0 gusting 2 7.8
2020-Jan-18 18:58 243 0 gusting 1 7.8
2020-Jan-18 18:48 256 7.8
2020-Jan-18 18:38 163 7.8
2020-Jan-18 18:28 227 7.8
2020-Jan-18 18:18 226 7.8
2020-Jan-18 18:08 173 7.8
2020-Jan-18 17:58 188 8.3
2020-Jan-18 17:48 249 8.3
2020-Jan-18 17:38 240 8.3
2020-Jan-18 17:28 233 8.3
2020-Jan-18 17:18 030 8.3
2020-Jan-18 17:08 243 8.3
2020-Jan-18 16:58 221 8.3
2020-Jan-18 16:48 263 0 gusting 2 8.3
2020-Jan-18 16:38 241 0 gusting 1 8.9
2020-Jan-18 16:28 252 8.9
2020-Jan-18 16:18 249 0 gusting 1 9.4
2020-Jan-18 16:08 240 10.0
2020-Jan-18 15:58 083 0 gusting 6 10.0
2020-Jan-18 15:48 088 1 gusting 4 10.6
2020-Jan-18 15:38 279 0 gusting 4 11.1
2020-Jan-18 15:28 120 0 gusting 2 11.1
2020-Jan-18 15:18 065 1 gusting 4 11.7
2020-Jan-18 15:08 089 12.2
2020-Jan-18 14:58 217 12.2
2020-Jan-18 14:48 236 12.2
2020-Jan-18 14:38 237 0 gusting 4 12.2
2020-Jan-18 14:28 316 0 gusting 2 12.8
2020-Jan-18 14:18 314 0 gusting 6 12.8
2020-Jan-18 14:08 247 0 gusting 4 12.8
2020-Jan-18 13:58 226 1 gusting 4 12.8
2020-Jan-18 13:48 031 0 gusting 2 12.8
2020-Jan-18 13:38 266 12.2
2020-Jan-18 13:28 272 0 gusting 4 12.2
2020-Jan-18 13:18 232 0 gusting 2 12.2
2020-Jan-18 13:08 262 0 gusting 2 12.8
2020-Jan-18 12:58 027 0 gusting 4 12.8
2020-Jan-18 12:48 257 1 gusting 5 12.8
2020-Jan-18 12:38 240 0 gusting 5 12.2
2020-Jan-18 12:28 259 0 gusting 2 12.2
2020-Jan-18 12:18 259 0 gusting 4 12.2
2020-Jan-18 12:08 246 12.8
2020-Jan-18 11:58 268 0 gusting 2 12.2
2020-Jan-18 11:48 081 0 gusting 2 12.2
2020-Jan-18 11:38 124 0 gusting 2 11.7
2020-Jan-18 11:28 068 1 gusting 2 12.2
2020-Jan-18 11:18 257 0 gusting 5 12.2
2020-Jan-18 11:08 083 12.2
2020-Jan-18 10:58 145 1 gusting 2 11.7
2020-Jan-18 10:48 084 1 gusting 2 11.7
2020-Jan-18 10:38 072 1 gusting 4 11.7
2020-Jan-18 10:28 340 1 gusting 2 11.7
2020-Jan-18 10:18 249 0 gusting 2 11.1
2020-Jan-18 10:08 258 0 gusting 2 11.1
2020-Jan-18 09:58 064 0 gusting 2 11.1
2020-Jan-18 09:48 044 0 gusting 2 11.1
2020-Jan-18 09:38 266 0 gusting 4 10.6
2020-Jan-18 09:28 237 0 gusting 2 10.6
2020-Jan-18 09:18 290 0 gusting 2 10.0
2020-Jan-18 09:08 034 0 gusting 2 10.0